Weather History for KMLP - December, 2013

Change the Weather History Date:

Friday, December 27, 2013

  Actual Average (WUND) Record (WUND)
Temperature  
Mean Temperature 30 °F -  
Max Temperature 36 °F - - (-1)
Min Temperature 24 °F - - (-1)
Degree Days  
Heating Degree Days 35    
Moisture  
Dew Point 23 °F    
Average Humidity 79    
Maximum Humidity 100    
Minimum Humidity 52    
Precipitation  
Precipitation 0.01 in - - ()
Sea Level Pressure  
Sea Level Pressure 30.00 in    
Wind  
Wind Speed 7 mph (SW)    
Max Wind Speed 12 mph    
Max Gust Speed 25 mph    
Visibility 7 miles    
Events Fog , Snow    
Averages and records for this station are not official NWS values.
T = Trace of Precipitation, MM = Missing Value Source: NWS Daily Summary

Daily Weather History Graph

Daily Weather History Graph

Search for Another Location

Airport or City:

Trip Planner

Search our weather history database for the weather conditions in past years. The results will help you decide how hot, cold, wet, or windy it might be!

Date:

Astronomy

Dec. 27, 2013 Rise Set
Actual Time 7:29 AM PST 3:58 PM PST
Civil Twilight 6:53 AM PST 4:34 PM PST
Nautical Twilight 6:14 AM PST 5:13 PM PST
Astronomical Twilight 5:37 AM PST 5:50 PM PST
Moon 1:52 AM PST (12/27) 12:23 PM PST (12/27)
Length of Visible Light 9h 40m
Length of Day
8h 28m
Waning Crescent, 27% of the Moon is Illuminated
Dec 27
Waning Crescent
Jan 1
New
Jan 7
First Quarter
Jan 15
Full
Jan 23
Last Quarter

Hourly Weather History & Observations

Time (PST) Temp. Windchill Dew Point Humidity Pressure Visibility Wind Dir Wind Speed Gust Speed Precip Events Conditions
12:53 AM 32.0 °F 23.6 °F 23.0 °F 69% 30.14 in 10.0 mi SW 10.4 mph - N/A   Clear
1:53 AM 30.0 °F 22.4 °F 23.0 °F 75% 30.15 in 10.0 mi SSW 8.1 mph - N/A   Clear
2:53 AM 32.0 °F 26.4 °F 23.0 °F 69% 30.14 in 10.0 mi SW 5.8 mph - N/A   Clear
3:53 AM 32.0 °F 26.4 °F 23.0 °F 69% 30.13 in 10.0 mi Variable 5.8 mph - N/A   Clear
4:53 AM 28.9 °F 25.2 °F 21.9 °F 75% 30.11 in 10.0 mi Variable 3.5 mph - N/A   Clear
5:53 AM 30.0 °F 21.1 °F 21.9 °F 72% 30.10 in 10.0 mi SSW 10.4 mph 17.3 mph N/A   Clear
6:53 AM 30.0 °F 22.4 °F 21.0 °F 69% 30.09 in 10.0 mi South 8.1 mph - N/A   Clear
7:53 AM 28.9 °F 22.8 °F 21.0 °F 72% 30.07 in 10.0 mi Variable 5.8 mph - N/A   Clear
8:53 AM 33.1 °F 27.7 °F 21.0 °F 61% 30.06 in 10.0 mi Variable 5.8 mph - N/A   Clear
9:53 AM 34.0 °F 26.0 °F 21.0 °F 59% 30.04 in 10.0 mi South 10.4 mph 16.1 mph N/A   Clear
10:53 AM 34.0 °F 27.2 °F 19.9 °F 56% 30.01 in 10.0 mi South 8.1 mph - N/A   Clear
11:53 AM 36.0 °F 32.1 °F 21.0 °F 55% 29.98 in 10.0 mi Variable 4.6 mph 16.1 mph N/A   Clear
12:53 PM 36.0 °F 29.0 °F 19.9 °F 52% 29.95 in 10.0 mi SSW 9.2 mph - N/A   Clear
1:53 PM 35.1 °F 32.2 °F 19.9 °F 54% 29.94 in 10.0 mi West 3.5 mph - N/A   Clear
2:53 PM 34.0 °F 29.8 °F 19.0 °F 54% 29.91 in 10.0 mi Variable 4.6 mph - N/A   Scattered Clouds
3:53 PM 34.0 °F 28.0 °F 19.0 °F 54% 29.88 in 10.0 mi Variable 6.9 mph - N/A   Mostly Cloudy
4:53 PM 34.0 °F 28.0 °F 18.0 °F 52% 29.90 in 10.0 mi Variable 6.9 mph 23.0 mph N/A   Overcast
5:53 PM 30.9 °F 23.5 °F 19.9 °F 64% 29.92 in 10.0 mi West 8.1 mph 17.3 mph 0.00 in   Overcast
6:53 PM 30.0 °F 20.5 °F 19.9 °F 66% 29.91 in 10.0 mi West 11.5 mph 19.6 mph 0.00 in   Overcast
7:01 PM 30.2 °F 20.8 °F 21.2 °F 69% 29.96 in 10.0 mi WSW 11.5 mph 21.9 mph N/A   Overcast
7:27 PM 28.4 °F 19.7 °F 23.0 °F 80% 29.96 in 2.0 mi WSW 9.2 mph 24.2 mph 0.00 in Snow Light Snow
7:29 PM 28.4 °F 20.4 °F 23.0 °F 80% 29.95 in 1.8 mi SW 8.1 mph 24.2 mph 0.00 in Snow Light Snow
7:41 PM 26.6 °F 17.5 °F 24.8 °F 93% 29.96 in 1.5 mi WSW 9.2 mph - 0.00 in Snow Light Snow
7:53 PM 27.0 °F 18.0 °F 25.0 °F 92% 30.05 in 1.5 mi WSW 9.2 mph 25.3 mph 0.01 in Snow Light Snow
7:59 PM 26.6 °F 19.1 °F 24.8 °F 93% 29.96 in 2.0 mi Variable 6.9 mph 16.1 mph 0.00 in Snow Light Snow
8:08 PM 26.6 °F 19.1 °F 24.8 °F 93% 29.97 in 5.0 mi Variable 6.9 mph 18.4 mph 0.00 in Snow Light Snow
8:18 PM 26.6 °F 18.2 °F 24.8 °F 93% 29.97 in 3.0 mi West 8.1 mph 19.6 mph 0.00 in Snow Light Snow
8:45 PM 26.6 °F 20.0 °F 24.8 °F 93% 29.97 in 10.0 mi Variable 5.8 mph - 0.00 in   Overcast
8:53 PM 27.0 °F 19.5 °F 25.0 °F 92% 29.91 in 10.0 mi Variable 6.9 mph - 0.00 in   Overcast
9:53 PM 26.1 °F 20.5 °F 24.1 °F 92% 29.94 in 10.0 mi West 4.6 mph - N/A   Overcast
10:13 PM 26.6 °F 20.0 °F 24.8 °F 93% 30.00 in 10.0 mi Variable 5.8 mph - N/A   Overcast
10:26 PM 26.6 °F 20.0 °F 24.8 °F 93% 30.00 in 10.0 mi Variable 5.8 mph - N/A   Overcast
10:51 PM 24.8 °F 20.5 °F 24.8 °F 100% 30.01 in 4.0 mi Variable 3.5 mph - N/A   Overcast
10:53 PM 25.0 °F 19.3 °F 24.1 °F 96% 29.94 in 4.0 mi Variable 4.6 mph - N/A   Overcast
10:58 PM 24.8 °F 20.5 °F 24.8 °F 100% 30.01 in 1.8 mi NW 3.5 mph - N/A   Overcast
11:08 PM 24.8 °F 19.1 °F 24.8 °F 100% 30.01 in 1.2 mi Variable 4.6 mph - N/A   Overcast
11:15 PM 24.8 °F 20.5 °F 24.8 °F 100% 30.01 in 0.5 mi Variable 3.5 mph - N/A Fog Light Freezing Fog
11:21 PM 24.8 °F 20.5 °F 24.8 °F 100% 30.01 in 1.5 mi Variable 3.5 mph - N/A   Overcast
11:28 PM 24.8 °F 19.1 °F 24.8 °F 100% 30.01 in 10.0 mi Variable 4.6 mph - N/A   Overcast
11:53 PM 24.1 °F 19.7 °F 23.0 °F 96% 29.95 in 2.5 mi Variable 3.5 mph - N/A   Overcast